Weather History for Kendall, FL

Change the Weather History Date:

Thursday, January 17, 2013

  Actual Average Record
Temperature  
Mean Temperature 70 °F -  
Max Temperature 79 °F 75 °F 83 °F (1991)
Min Temperature 62 °F 53 °F 39 °F (2014)
Cooling Degree Days 6    
Growing Degree Days 20 (Base 50)    
Moisture  
Dew Point 64 °F    
Average Humidity 86    
Maximum Humidity 100    
Minimum Humidity 62    
Precipitation  
Precipitation 0.02 in - - ()
Sea Level Pressure  
Sea Level Pressure 30.06 in    
Wind  
Wind Speed 5 mph (West)    
Max Wind Speed 20 mph    
Max Gust Speed 25 mph    
Visibility 8 miles    
Events Rain    
Averages and records for this station are not official NWS values.
T = Trace of Precipitation, MM = Missing Value Source: NWS Daily Summary

Daily Weather History Graph

Daily Weather History Graph

Search for Another Location

Airport:

Trip Planner

Search our weather history database for the weather conditions in past years. The results will help you decide how hot, cold, wet, or windy it might be!

Date:

Astronomy

Jan. 17, 2013 Rise Set
Actual Time 7:09 AM EST 5:54 PM EST
Civil Twilight 6:44 AM EST 6:19 PM EST
Nautical Twilight 6:16 AM EST 6:47 PM EST
Astronomical Twilight 5:49 AM EST 7:14 PM EST
Moon 10:59 AM EST (1/17) 11:57 PM EST (1/17)
Length of Visible Light 11h 34m
Length of Day
10h 45m
Waxing Crescent, 37% of the Moon is Illuminated
Jan 17
Waxing Crescent
Jan 18
First Quarter
Jan 26
Full
Feb 3
Last Quarter
Feb 10
New

Hourly Weather History & Observations

Time (EST) Temp. Dew Point Humidity Pressure Visibility Wind Dir Wind Speed Gust Speed Precip Events Conditions
12:00 AM 68.0 °F 66.2 °F 94% 30.05 in 2.0 mi Calm Calm - N/A   Scattered Clouds
12:09 AM 68.0 °F 68.0 °F 100% 30.05 in 10.0 mi Calm Calm - N/A   Mostly Cloudy
12:53 AM 69.1 °F 68.0 °F 96% 30.05 in 10.0 mi ESE 4.6 mph - N/A   Overcast
1:53 AM 70.0 °F 66.9 °F 90% 30.04 in 10.0 mi SE 4.6 mph - N/A   Clear
2:53 AM 66.0 °F 64.0 °F 93% 30.04 in 10.0 mi Calm Calm - N/A   Partly Cloudy
3:53 AM 64.0 °F 63.0 °F 96% 30.04 in 7.0 mi Calm Calm - N/A   Clear
4:22 AM 64.4 °F 64.4 °F 100% 30.04 in 1.8 mi Calm Calm - N/A   Clear
4:30 AM 64.4 °F 64.4 °F 100% 30.04 in 2.5 mi Calm Calm - N/A   Clear
4:37 AM 64.4 °F 64.4 °F 100% 30.04 in 10.0 mi Calm Calm - N/A   Clear
4:53 AM 64.9 °F 64.0 °F 97% 30.04 in 6.0 mi Calm Calm - N/A   Clear
5:53 AM 64.4 °F 64.4 °F 100% 30.04 in 10.0 mi Calm Calm - N/A   Clear
6:53 AM 63.0 °F 62.1 °F 97% 30.06 in 10.0 mi Calm Calm - N/A   Scattered Clouds
7:53 AM 66.9 °F 66.0 °F 97% 30.07 in 10.0 mi ESE 3.5 mph - N/A   Partly Cloudy
8:53 AM 75.9 °F 70.0 °F 82% 30.09 in 10.0 mi South 4.6 mph - N/A   Mostly Cloudy
9:53 AM 78.1 °F 69.1 °F 74% 30.10 in 10.0 mi SSE 8.1 mph - N/A   Overcast
10:53 AM 79.0 °F 68.0 °F 69% 30.09 in 10.0 mi South 4.6 mph - N/A   Overcast
11:29 AM 71.6 °F 66.2 °F 83% 30.08 in 10.0 mi WSW 15.0 mph - 0.00 in Rain Light Rain
11:44 AM 71.6 °F 68.0 °F 88% 30.08 in 3.0 mi West 12.7 mph - 0.00 in Rain Light Rain
11:53 AM 71.1 °F 69.1 °F 93% 30.08 in 10.0 mi West 12.7 mph - 0.00 in   Overcast
12:42 PM 69.8 °F 66.2 °F 88% 30.06 in 2.5 mi WSW 10.4 mph - 0.01 in Rain Light Rain
12:53 PM 70.0 °F 66.9 °F 90% 30.06 in 2.5 mi West 10.4 mph - 0.01 in Rain Light Rain
1:00 PM 69.8 °F 66.2 °F 88% 30.05 in 2.5 mi West 9.2 mph - 0.01 in Rain Light Rain
1:16 PM 69.8 °F 68.0 °F 94% 30.02 in 7.0 mi NE 5.8 mph - 0.01 in Rain Light Rain
1:53 PM 73.0 °F 69.1 °F 87% 30.01 in 10.0 mi East 5.8 mph - 0.01 in   Overcast
2:53 PM 75.0 °F 68.0 °F 79% 30.01 in 10.0 mi SW 4.6 mph - N/A   Overcast
3:53 PM 77.0 °F 66.9 °F 71% 30.01 in 10.0 mi WSW 8.1 mph - N/A   Scattered Clouds
4:53 PM 79.0 °F 64.9 °F 62% 30.01 in 10.0 mi WSW 8.1 mph - N/A   Partly Cloudy
5:53 PM 73.9 °F 64.9 °F 73% 30.02 in 10.0 mi West 9.2 mph - N/A   Partly Cloudy
6:53 PM 70.0 °F 64.9 °F 84% 30.05 in 10.0 mi West 8.1 mph - N/A   Clear
7:53 PM 69.1 °F 64.0 °F 84% 30.08 in 10.0 mi NNW 19.6 mph 25.3 mph N/A   Mostly Cloudy
8:48 PM 64.4 °F 57.2 °F 77% 30.11 in 10.0 mi NNW 12.7 mph 25.3 mph N/A   Overcast
8:53 PM 64.9 °F 57.9 °F 78% 30.11 in 10.0 mi NNW 13.8 mph 25.3 mph N/A   Overcast
9:14 PM 64.4 °F 57.2 °F 77% 30.12 in 10.0 mi NNW 16.1 mph - N/A   Overcast
9:53 PM 64.0 °F 55.9 °F 75% 30.11 in 10.0 mi NNW 11.5 mph - N/A   Mostly Cloudy
10:10 PM 62.6 °F 57.2 °F 82% 30.11 in 10.0 mi NNW 9.2 mph - N/A   Scattered Clouds
10:53 PM 63.0 °F 55.9 °F 78% 30.12 in 10.0 mi NW 10.4 mph - N/A   Clear
11:53 PM 62.1 °F 55.0 °F 78% 30.12 in 10.0 mi NW 10.4 mph - N/A   Clear